sat.trackr.live / text

‹ back to catalog

CUBEBEL 2 (EU11S)

NORAD 57175 · 2023-091K

PAYLOAD ACTIVE UNKNOWN

§ Identity

Operator
Country
BELA
Launch date
2023-06-27
Launch site
VOSTO
Launch vehicle
Mass (kg)
RCS (m²)

External: N2YO · Heavens-Above · Gunter

§ Orbital elements

Epoch: 2026-05-25T03:29:09.550752Z

Period
94.21 min
Inclination
97.5063°
Eccentricity
0.0010063
Mean motion
15.28520004 rev/d
Perigee alt
473.3 km
Apogee alt
487.1 km
Semi-major
6,858.4 km
B*
4.0629e-4
RAAN
208.1656°
Arg perigee
187.2953°
Mean anomaly
172.8142°
Rev number
16,078

§ Raw data

CUBEBEL 2 (EU11S)1 57175U 23091K   26145.14524943  .00011220  00000+0  40629-3 0  99992 57175  97.5063 208.1656 0010063 187.2953 172.8142 15.28520004160784

JSON: /api/v1/satellites/57175 · /tle

For live sub-satellite position, see the globe view (requires WebGL).

§ Visibility from observer

Set your observer location to see the next 7 days of passes ≥ 10°. The values pass through the URL so the page stays shareable.

No JS? Fill the form by hand. The geolocation button needs JavaScript.

§ Radio — SatNOGS DB

ModeDescriptionDownlinkUplink
FM Mode S - Transmitter 2.425 GHz
FSK Mode U 9k6 FSK AX.25 436.990 MHz

2 transmitters · refreshed weekly from db.satnogs.org